Patuxent River, MD

11:29 AM EDT on April 27, 2017 (GMT -0400)
Patuxent River Naval Air Station

Weather History for KNHK - November, 2013

Change the Weather History Date:

Wednesday, November 13, 2013

  Actual Average Record
Temperature  
Mean Temperature 36 °F -  
Max Temperature 44 °F 55 °F 78 °F (1985)
Min Temperature 27 °F 39 °F 27 °F (2013)
Degree Days  
Heating Degree Days 29    
Moisture  
Dew Point 18 °F    
Average Humidity 51    
Maximum Humidity 75    
Minimum Humidity 32    
Precipitation  
Precipitation 0.00 in - - ()
Sea Level Pressure  
Sea Level Pressure 30.43 in    
Wind  
Wind Speed 13 mph (WNW)    
Max Wind Speed 21 mph    
Max Gust Speed 29 mph    
Visibility 10 miles    
Events      
Averages and records for this station are not official NWS values.
T = Trace of Precipitation, MM = Missing Value Source: NWS Daily Summary

Daily Weather History Graph

Daily Weather History Graph

Search for Another Location

Airport or City:

Trip Planner

Search our weather history database for the weather conditions in past years. The results will help you decide how hot, cold, wet, or windy it might be!

Date:

Astronomy

Nov. 13, 2013 Rise Set
Actual Time 6:45 AM EST 4:54 PM EST
Civil Twilight 6:16 AM EST 5:22 PM EST
Nautical Twilight 5:45 AM EST 5:54 PM EST
Astronomical Twilight 5:13 AM EST 6:25 PM EST
Moon 2:37 PM EST (11/13) 2:39 AM EST (11/13)
Length of Visible Light 11h 05m
Length of Day
10h 09m
Waxing Gibbous, 84% of the Moon is Illuminated
Nov 13
Waxing Gibbous
Nov 17
Full
Nov 25
Last Quarter
Dec 2
New
Dec 9
First Quarter

Hourly Weather History & Observations

Time (EST) Temp. Windchill Dew Point Humidity Pressure Visibility Wind Dir Wind Speed Gust Speed Precip Events Conditions
12:52 AM 36.0 °F 25.3 °F 16.0 °F 44% 30.39 in 10.0 mi NNW 19.6 mph 24.2 mph N/A   Clear
1:52 AM 34.0 °F 24.6 °F 17.1 °F 50% 30.40 in 10.0 mi WNW 13.8 mph - N/A   Clear
2:52 AM 32.0 °F 22.5 °F 17.1 °F 54% 30.39 in 10.0 mi WNW 12.7 mph - N/A   Clear
3:52 AM 32.0 °F 23.0 °F 18.0 °F 56% 30.40 in 10.0 mi WNW 11.5 mph - N/A   Clear
4:52 AM 32.0 °F 23.6 °F 18.0 °F 56% 30.40 in 10.0 mi WNW 10.4 mph - N/A   Clear
5:02 AM 32.0 °F 22.5 °F 17.6 °F 55% 30.40 in 10.0 mi WNW 12.7 mph - N/A   Clear
5:52 AM 32.0 °F 24.2 °F 19.0 °F 59% 30.42 in 10.0 mi WNW 9.2 mph 24.2 mph N/A   Partly Cloudy
6:52 AM 30.9 °F 22.8 °F 18.0 °F 59% 30.44 in 10.0 mi WNW 9.2 mph - N/A   Scattered Clouds
7:52 AM 33.1 °F 23.9 °F 19.0 °F 56% 30.46 in 10.0 mi WNW 12.7 mph - N/A   Scattered Clouds
8:52 AM 36.0 °F 25.6 °F 19.9 °F 52% 30.47 in 10.0 mi NNW 18.4 mph 25.3 mph N/A   Mostly Cloudy
9:52 AM 39.0 °F 29.0 °F 16.0 °F 39% 30.47 in 10.0 mi NNW 20.7 mph 28.8 mph N/A   Scattered Clouds
10:52 AM 39.9 °F 31.1 °F 14.0 °F 35% 30.46 in 10.0 mi NNW 17.3 mph 28.8 mph N/A   Partly Cloudy
11:52 AM 42.1 °F 33.3 °F 15.1 °F 34% 30.44 in 10.0 mi NNW 19.6 mph 24.2 mph N/A   Scattered Clouds
12:52 PM 43.0 °F 36.4 °F 15.1 °F 32% 30.43 in 10.0 mi NNW 12.7 mph 21.9 mph N/A   Partly Cloudy
1:52 PM 44.1 °F 38.1 °F 16.0 °F 32% 30.42 in 10.0 mi NNW 11.5 mph 20.7 mph N/A   Partly Cloudy
2:52 PM 43.0 °F 35.7 °F 15.1 °F 32% 30.42 in 10.0 mi NW 15.0 mph 21.9 mph N/A   Partly Cloudy
3:52 PM 42.1 °F 34.9 °F 17.1 °F 37% 30.43 in 10.0 mi WNW 13.8 mph - N/A   Partly Cloudy
4:52 PM 39.0 °F 32.8 °F 18.0 °F 43% 30.43 in 10.0 mi WNW 9.2 mph - N/A   Partly Cloudy
5:52 PM 36.0 °F 30.3 °F 18.0 °F 48% 30.44 in 10.0 mi West 6.9 mph - N/A   Clear
6:52 PM 30.9 °F 27.5 °F 19.0 °F 61% 30.45 in 10.0 mi WSW 3.5 mph - N/A   Clear
7:52 PM 28.0 °F 24.2 °F 19.0 °F 69% 30.43 in 10.0 mi SW 3.5 mph - N/A   Clear
8:52 PM 30.0 °F 24.1 °F 19.9 °F 66% 30.43 in 10.0 mi SW 5.8 mph - N/A   Clear
9:52 PM 30.0 °F 24.1 °F 19.9 °F 66% 30.43 in 10.0 mi SW 5.8 mph - N/A   Clear
10:52 PM 30.0 °F 24.1 °F 19.9 °F 66% 30.43 in 10.0 mi WSW 5.8 mph - N/A   Clear
11:52 PM 27.0 °F 20.5 °F 19.9 °F 75% 30.42 in 10.0 mi WSW 5.8 mph - N/A   Clear